Regional Weather Roundup
Issued by NWS Kansas City/Pleasant Hill, MO

Home | Current Version | Previous Version | Text Only | Print | Product List | Glossary On
Versions: 1 2 3 4 5 6 7 8 9 10 11 12 13 14 15 16 17 18 19 20 21 22 23 24 25 26 27 28 29 30 31 32 33 34 35 36 37 38 39 40 41 42 43 44 45 46 47 48 49 50
000
ASUS43 KEAX 291810
RWREAX

WEATHER ROUNDUP FOR EASTERN KANSAS AND NORTHWEST MISSOURI
NATIONAL WEATHER SERVICE KANSAS CITY/PLEASANT HILL MO
100 PM CDT FRI AUG 29 2014

KSZ040-057-103>105-MOZ028-029-037-043-291900-
...KANSAS CITY METROPOLITAN AREA...

CITY           SKY/WX    TMP DP  RH WIND       PRES   REMARKS
K.C. INTL      LGT RAIN  71  68  90 S10       29.88F
6HR MIN TEMP:  68; 6HR MAX TEMP:  81; 6HR PCP:  0.03;

K.C. DOWNTOWN  CLOUDY    73  68  84 SW5       29.86F
6HR MIN TEMP:  72; 6HR MAX TEMP:  82; 6HR PCP:  0.22;

LEES SUMMIT    CLOUDY    72  70  93 S3        29.88F
6HR MIN TEMP:  70; 6HR MAX TEMP:  79; 6HR PCP:  0.25;

OLATHE - IXD   CLOUDY    73  70  90 S8        29.89F
6HR MIN TEMP:  70; 6HR MAX TEMP:  80; 6HR PCP:  0.11;

OLATHE - OJC   CLOUDY    71  70  96 S7        29.88F
6HR MIN TEMP:  69; 6HR MAX TEMP:  77; 6HR PCP:  0.12;

LAWRENCE       CLOUDY    81  69  67 S9        29.86F

$$

MOZ001>008-011>017-020>025-030>033-038>040-044>046-053-054-291900-
...NORTHERN AND CENTRAL MISSOURI...

CITY           SKY/WX    TMP DP  RH WIND       PRES   REMARKS
ST. JOSEPH     LGT RAIN  73  68  84 S7        29.86R
6HR MIN TEMP:  68; 6HR MAX TEMP:  76; 6HR PCP: TRACE;

WHITEMAN AFB   HVY RAIN  74  71  92 W13       29.89R FOG
6HR MIN TEMP:  68; 6HR MAX TEMP:  83; 6HR PCP:  0.09;

CLINTON        PTSUNNY   73  72  94 SW8       29.90F
SEDALIA        LGT RAIN  78  69  73 SW8       29.88F
6HR MIN TEMP:  69; 6HR MAX TEMP:  88; 6HR PCP:  0.01;

WARSAW         NOT AVBL
MARSHALL       PTSUNNY   84  72  65 SW14G20   29.86F
CHILLICOTHE      N/A     82  70  66 S8G17     29.84F
6HR MIN TEMP:  71; 6HR MAX TEMP:  84;

MOBERLY        MOSUNNY   88  68  51 SE13      29.87F HX  91
KIRKSVILLE     MOSUNNY   85  69  58 S14G21    29.87F
6HR MIN TEMP:  68; 6HR MAX TEMP:  87;


$$

MOZ041-047>049-056>058-063>065-088>090-097-291900-
...EASTERN AND SOUTHERN MISSOURI...

CITY           SKY/WX    TMP DP  RH WIND       PRES   REMARKS
ST. LOUIS INTL MOSUNNY   90  67  46 S7G18     29.92F HX  93
6HR MIN TEMP:  75; 6HR MAX TEMP:  90;

SPIRIT OF STL  MOSUNNY   88  65  46 S8        29.90F HX  90
COLUMBIA       MOSUNNY   91  66  43 S15G25    29.88F HX  93
JEFFERSON CITY SUNNY     90  66  45 S10G20    29.86F HX  92
MEXICO         PTSUNNY   90  72  55 S12       29.88F HX  96
HANNIBAL       SUNNY     90  61  37 S7        29.89F
ROLLA          MOSUNNY   89  63  41 S16G24    29.91F HX  90
LEBANON        LGT RAIN  82  66  57 SW12G18   29.91F
OSAGE BEACH    PTSUNNY   91  66  43 S15G22    29.87F HX  94
SPRINGFIELD    PTSUNNY   86  66  51 SW14      29.91F
BRANSON        PTSUNNY   90  66  45 W8        29.94F HX  92
JOPLIN         PTSUNNY   86  66  51 S13G24    29.91F
WEST PLAINS    PTSUNNY   86  64  47 SW10      29.96F

$$

IAZ060-094-KSZ022-034>040-054-083-096-NEZ052-066-093-291900-
...KANSAS...SOUTHEAST NEBRASKA AND IOWA...

CITY           SKY/WX    TMP DP  RH WIND       PRES   REMARKS
TOPEKA         CLOUDY    79  68  69 SE6       29.85F
6HR MIN TEMP:  71; 6HR MAX TEMP:  79; 6HR PCP:  0.05;

MANHATTAN      SUNNY     83  64  52 SW10G17   29.83F
EMPORIA        MOSUNNY   84  64  50 S15       29.86F
CHANUTE        PTSUNNY   81  66  60 S13       29.90F
WICHITA        MOSUNNY   82  65  56 SW10G20   29.88F
OMAHA          LGT RAIN  73  68  84 S5        29.82F
LINCOLN        CLOUDY    73  68  84 SW6       29.83F
FALLS CITY     CLOUDY    75  68  78 S7        29.83F
DES MOINES     PTSUNNY   84  71  65 SW12      29.81F

$$




USA.gov is the U.S. government's official web portal to all federal, state and local government web resources and services.